User: anonymous   Login
Location: Unspecified
(0.0000°N, 0.0000°E)
Time: 07:20:07
(UTC+02:00)
Language:

Iridium 4 Rocket - Orbit

View from above orbital plane
View from above orbital plane
View from above satellite
View from above satellite

Ground track
Ground track

The orbit data is extracted from the following two-line orbital elements,

1 24797U 97020F   17230.22332174  .00000107  00000-0  16576-4 0  9991
2 24797  86.8993 330.6549 0227622 110.3592 277.9057 14.43993774 66893
Epoch (UTC): 18 August 2017 05:21:34
Eccentricity: 0.0227622
inclination: 86.8993°
perigee height: 583 km
apogee height: 907 km
right ascension of ascending node: 330.6549°
argument of perigee: 110.3592°
revolutions per day: 14.43993774
mean anomaly at epoch: 277.9057°
orbit number at epoch: 6689

The dashed part of the orbit path shows where the satellite is in the earth's shadow,  

DLR